Regional Weather Roundup
Issued by NWS Kansas City/Pleasant Hill, MO

Home | Current Version | Previous Version | Graphics & Text | Print | Product List | Glossary Off
Versions: 1 2 3 4 5 6 7 8 9 10 11 12 13 14 15 16 17 18 19 20 21 22 23 24 25 26 27 28 29 30 31 32 33 34 35 36 37 38 39 40 41 42 43 44 45 46 47 48 49 50

000
ASUS43 KEAX 020710
RWREAX

WEATHER ROUNDUP FOR EASTERN KANSAS AND NORTHWEST MISSOURI
NATIONAL WEATHER SERVICE KANSAS CITY/PLEASANT HILL MO
200 AM CDT WED SEP 02 2015

KSZ040-057-103>105-MOZ028-029-037-043-020800-
...KANSAS CITY METROPOLITAN AREA...

CITY           SKY/WX    TMP DP  RH WIND       PRES   REMARKS
K.C. INTL      PTCLDY    73  65  75 S12       29.99F
K.C. DOWNTOWN  CLEAR     77  65  66 SW7       29.99F
LEES SUMMIT    CLEAR     74  63  68 S9        30.01F
OLATHE - IXD   CLEAR     72  66  81 S9        30.01F
OLATHE - OJC   CLEAR     70  65  84 S7        30.00F
LAWRENCE       CLEAR     73  66  78 SE7       29.98F

$$

MOZ001>008-011>017-020>025-030>033-038>040-044>046-053-054-020800-
...NORTHERN AND CENTRAL MISSOURI...

CITY           SKY/WX    TMP DP  RH WIND       PRES   REMARKS
ST. JOSEPH     LGT RAIN  74  69  85 SE5       29.98F
MOSBY          SUNNY     70  64  83 CALM      29.99F
WHITEMAN AFB   CLEAR     72  68  87 S7        30.02F
CLINTON        CLEAR     72  70  94 CALM      30.04F
SEDALIA        CLEAR     73  68  84 S6        30.05F
WARSAW         NOT AVBL
CHILLICOTHE      N/A     70  68  93 CALM      30.01F
KIRKSVILLE     CLEAR     73  67  81 S8        30.03F

$$

MOZ041-047>049-056>058-063>065-088>090-097-020800-
...EASTERN AND SOUTHERN MISSOURI...

CITY           SKY/WX    TMP DP  RH WIND       PRES   REMARKS
ST. LOUIS INTL CLEAR     79  69  71 SW3       30.07F
SPIRIT OF STL  CLEAR     72  71  97 CALM      30.05F
COLUMBIA       CLEAR     72  69  90 S7        30.05F
JEFFERSON CITY CLEAR     74  69  85 E5        30.04F
ROLLA          CLEAR     72  69  90 S7        30.07F
OSAGE BEACH    CLEAR     73  66  78 S8        30.06F
SPRINGFIELD    CLEAR     72  67  84 SE10      30.07F
BRANSON        CLEAR     72  64  78 CALM      30.10F
JOPLIN         CLEAR     74  66  76 S10       30.04F
WEST PLAINS    CLEAR     74  67  78 CALM      30.12F

$$

IAZ060-094-KSZ022-034>040-054-083-096-NEZ052-066-093-020800-
...KANSAS...SOUTHEAST NEBRASKA AND IOWA...

CITY           SKY/WX    TMP DP  RH WIND       PRES   REMARKS
TOPEKA         PTCLDY    76  67  73 S8        29.97F
MANHATTAN      MOCLDY    79  67  66 S13       29.94S
EMPORIA        CLEAR     73  67  81 S14       29.99F
CHANUTE        CLEAR     71  67  87 SE8       30.01F
WICHITA        MOCLDY    78  64  61 S15       29.98F
OMAHA          PTCLDY    76  68  76 SE15      29.90F
LINCOLN        CLEAR     76  68  76 S10       29.90F
FALLS CITY     LGT RAIN  73  69  87 S9        29.95S
LAMONI         MOCLDY    74  66  76 S8        29.98F
DES MOINES     CLOUDY    76  67  73 SW8       29.98R THUNDER

$$




USA.gov is the U.S. government's official web portal to all federal, state and local government web resources and services.